Weather History for Boston, MA

Change the Weather History Date:

Wednesday, June 19, 2013

  Actual Average Record
Temperature  
Mean Temperature 65 °F 69 °F  
Max Temperature 71 °F 77 °F 96 °F (1923)
Min Temperature 58 °F 61 °F 47 °F (1920)
Degree Days  
Heating Degree Days 0 1  
Month to date heating degree days 24 47  
Since 1 June heating degree days 24 47  
Since 1 July heating degree days 5361 5673  
Cooling Degree Days 0 5  
Month to date cooling degree days 62 67  
Year to date cooling degree days 100 97  
Since 1 June cooling degree days 62 67  
Growing Degree Days 14 (Base 50)    
Moisture  
Dew Point 52 °F    
Average Humidity 70    
Maximum Humidity 93    
Minimum Humidity 47    
Precipitation  
Precipitation 0.00 in 0.12 in 3.32 in (1922)
Month to date precipitation 9.47 2.60  
Year to date precipitation 23.72 20.76  
Snow  
Snow 0.00 in 0.00 in 0.00 in (2002)
Month to date snowfall 0.0 0.0  
Since 1 June snowfall 0.0 0.0  
Since 1 July snowfall 63.4 43.8  
Snow Depth 0.00 in    
Sea Level Pressure  
Sea Level Pressure 30.01 in    
Wind  
Wind Speed 11 mph (ENE)    
Max Wind Speed 16 mph    
Max Gust Speed 20 mph    
Visibility 10 miles    
Events      
T = Trace of Precipitation, MM = Missing Value Source: NWS Daily Summary

Daily Weather History Graph

Daily Weather History Graph

Search for Another Location

Airport:

Trip Planner

Search our weather history database for the weather conditions in past years. The results will help you decide how hot, cold, wet, or windy it might be!

Date:

Astronomy

Jun. 19, 2013 Rise Set
Actual Time 5:06 AM EDT 8:24 PM EDT
Civil Twilight 4:32 AM EDT 8:58 PM EDT
Nautical Twilight 3:47 AM EDT 9:43 PM EDT
Astronomical Twilight 2:52 AM EDT 10:38 PM EDT
Moon 4:10 PM EDT (6/19) 1:53 AM EDT (6/19)
Length of Visible Light 16h 26m
Length of Day
15h 17m
Waxing Gibbous, 80% of the Moon is Illuminated
Jun 19
Waxing Gibbous
Jun 23
Full
Jun 30
Last Quarter
Jul 8
New
Jul 15
First Quarter

Hourly Weather History & Observations

Time (EDT) Temp. Dew Point Humidity Pressure Visibility Wind Dir Wind Speed Gust Speed Precip Events Conditions
12:54 AM 59.0 °F 57.0 °F 93% 29.92 in 10.0 mi North 6.9 mph - 0.02 in   Overcast
1:20 AM 59.0 °F 55.4 °F 88% 29.92 in 10.0 mi North 9.2 mph - N/A   Overcast
1:54 AM 59.0 °F 55.0 °F 87% 29.92 in 10.0 mi North 10.4 mph - N/A   Overcast
2:54 AM 57.9 °F 54.0 °F 87% 29.92 in 10.0 mi North 10.4 mph - N/A   Overcast
3:54 AM 57.9 °F 54.0 °F 87% 29.91 in 10.0 mi North 9.2 mph - N/A   Mostly Cloudy
4:54 AM 57.9 °F 53.1 °F 84% 29.92 in 10.0 mi North 8.1 mph - N/A   Mostly Cloudy
5:54 AM 57.9 °F 54.0 °F 87% 29.92 in 10.0 mi North 8.1 mph - N/A   Scattered Clouds
6:54 AM 61.0 °F 55.0 °F 81% 29.94 in 10.0 mi NNW 8.1 mph - N/A   Scattered Clouds
7:54 AM 63.0 °F 54.0 °F 72% 29.96 in 10.0 mi North 11.5 mph - N/A   Mostly Cloudy
8:54 AM 64.9 °F 55.0 °F 70% 29.98 in 10.0 mi North 12.7 mph - N/A   Mostly Cloudy
9:54 AM 68.0 °F 48.9 °F 50% 29.99 in 10.0 mi North 12.7 mph - N/A   Scattered Clouds
10:54 AM 70.0 °F 48.0 °F 46% 30.01 in 10.0 mi NE 11.5 mph - N/A   Scattered Clouds
11:54 AM 68.0 °F 53.1 °F 59% 30.01 in 10.0 mi East 13.8 mph - N/A   Scattered Clouds
12:54 PM 69.1 °F 51.1 °F 53% 30.01 in 10.0 mi East 12.7 mph - N/A   Scattered Clouds
1:54 PM 68.0 °F 53.1 °F 59% 30.02 in 10.0 mi East 15.0 mph - N/A   Scattered Clouds
2:54 PM 66.0 °F 52.0 °F 60% 30.03 in 10.0 mi SE 11.5 mph - N/A   Partly Cloudy
3:54 PM 64.9 °F 51.1 °F 61% 30.04 in 10.0 mi SE 11.5 mph - N/A   Partly Cloudy
4:54 PM 66.9 °F 50.0 °F 54% 30.05 in 10.0 mi SE 9.2 mph - N/A   Partly Cloudy
5:54 PM 68.0 °F 48.0 °F 49% 30.04 in 10.0 mi ESE 12.7 mph - N/A   Partly Cloudy
6:29 PM 66.2 °F 50.0 °F 56% 30.05 in 1.8 mi ESE 9.2 mph - N/A   Haze
6:31 PM 66.2 °F 50.0 °F 56% 30.05 in 10.0 mi ESE 10.4 mph - N/A   Partly Cloudy
6:54 PM 66.0 °F 51.1 °F 59% 30.06 in 10.0 mi SE 9.2 mph - N/A   Partly Cloudy
7:54 PM 64.9 °F 50.0 °F 58% 30.07 in 9.0 mi SE 6.9 mph - N/A   Partly Cloudy
8:54 PM 64.0 °F 51.1 °F 63% 30.09 in 10.0 mi SSE 6.9 mph - N/A   Scattered Clouds
9:54 PM 63.0 °F 50.0 °F 63% 30.13 in 10.0 mi South 5.8 mph - N/A   Mostly Cloudy
10:54 PM 63.0 °F 50.0 °F 63% 30.14 in 10.0 mi SSW 8.1 mph - N/A   Scattered Clouds
11:54 PM 63.0 °F 51.1 °F 65% 30.15 in 10.0 mi SW 8.1 mph - N/A   Partly Cloudy